Location: Clinton NY
(43.0598°N, 75.3602°W)
Time: 08:30:29
(UTC-04:00)

Iridium 11 - Visible Passes

Search period start: 05 August 2015 00:00
Search period end: 15 August 2015 00:00
Orbit: 776 x 779 km, 86.4° (Epoch: 04 August)

Date Brightness Start Highest point End Pass type
(mag) Time Alt. Az. Time Alt. Az. Time Alt. Az.
05 Aug 7.4 02:50:08 10° NNE 02:54:21 25° ENE 02:58:25 11° SE visible
05 Aug 6.1 04:30:25 10° NNW 04:35:16 39° W 04:38:50 17° SW visible
06 Aug 8.1 02:17:48 10° NE 02:20:24 14° ENE 02:23:17 10° ESE visible
06 Aug 5.5 03:56:38 10° N 04:01:51 72° W 04:04:55 25° S visible
07 Aug 5.8 03:23:06 10° N 03:28:18 64° E 03:31:01 28° SSE visible
07 Aug 7.2 05:05:24 10° NW 05:08:33 16° W 05:11:26 10° WSW visible
08 Aug 6.8 02:49:53 10° NNE 02:54:37 35° E 02:57:08 23° SE visible
08 Aug 6.5 04:30:50 10° NNW 04:35:16 28° W 04:37:34 20° WSW visible
09 Aug 7.6 02:17:03 10° NNE 02:20:47 20° ENE 02:23:17 15° ESE visible
09 Aug 5.8 03:56:51 10° NNW 04:01:53 50° W 04:03:43 34° SW visible
10 Aug 8.1 01:45:27 10° NE 01:46:46 11° ENE 01:48:24 10° E visible
10 Aug 5.4 03:23:10 10° N 03:28:26 90° W 03:29:53 49° S visible
10 Aug 7.5 05:07:07 10° WNW 05:08:27 11° WNW 05:09:26 10° W visible
11 Aug 6.2 02:49:46 10° N 02:54:50 50° E 02:56:05 41° SE visible
11 Aug 6.9 04:31:27 10° NW 04:35:13 20° W 04:36:31 18° W visible
12 Aug 7.0 02:16:40 10° NNE 02:21:05 28° ENE 02:22:17 26° E visible
12 Aug 6.2 03:57:11 10° NNW 04:01:54 35° W 04:02:44 33° WSW visible
13 Aug 7.7 01:44:06 10° NE 01:47:11 16° ENE 01:48:30 15° E visible
13 Aug 5.5 03:23:20 10° N 03:28:30 63° W 03:28:57 60° WSW visible
14 Aug 5.5 02:49:46 10° N 02:54:59 72° E 02:55:11 71° ESE visible
14 Aug 7.3 04:32:27 10° NW 04:35:09 14° WNW 04:35:39 14° W visible
